STARLINK-37205

Last updated on Sun Apr 12 2026 00:02:08 GMT+0000 (Coordinated Universal Time)

1 68332U 26059M 26101.36913507 .00020852 00000+0 10883-3 0 9997 2 68332 53.1572 199.0186 0003178 89.2842 270.8545 15.80890366 3148
UTC large
Height (km)
Speed (km/s)
/
Latitude / Longitude
Inclination (degrees)
Orbital Period (minutes)
Azimuth
Elevation
Range (km)
Doppler Factor

Next 0 passes for location: London (51.5072 / 0.1276)

Sorry there are no passes over London.
STARLINK-37205